Location: ??????
(55.7522°N, 37.6156°E)
Time: 09:44:37
(UTC+00:00)

Resurs 1-4 Rocket - Pass Details

Date: 14 June 2025
Orbit: 799 x 811 km, 98.8° (Epoch: 20 April)

Event Time Altitude Azimuth Distance (km) Brightness Sun altitude
Rises 22:25:20 0° 25° (NNE) 3,323 7.2 -10.1°
Reaches altitude 10° 22:28:30 10° 45° (NE) 2,389 5.6 -10.0°
Maximum altitude 22:31:58 18° 86° (E) 1,912 4.3 -9.8°
Drops below altitude 10° 22:35:25 10° 128° (SE) 2,382 4.3 -9.7°
Sets 22:38:33 0° 147° (SSE) 3,309 4.9 -9.6°
Enters shadow 22:38:43 - 148° (SSE) 3,365 4.9 -9.6°
